Regional Weather Roundup
Issued by NWS

Home | Current Version | Previous Version | Graphics & Text | Print | Product List | Glossary On
Versions: 1 2 3 4 5 6 7 8 9 10 11 12 13 14 15 16 17 18 19 20 21 22 23 24 25 26 27 28 29 30 31 32 33 34 35 36 37 38 39 40 41 42 43 44 45 46 47 48 49 50
000
ASUS45 KABQ 010810
RWRNM
WEATHER ROUNDUP FOR NEW MEXICO
NATIONAL WEATHER SERVICE ALBUQUERQUE NM
100 AM MST SUN FEB 01 2015

NOTE: "FAIR" MEANS FEW OR NO CLOUDS BELOW 12,000 FEET AGL WITH NO
       SIGNIFICANT WEATHER OR OBSTRUCTIONS TO VISION.

      THIS PRODUCT IS RELEASED AS TWO VERSIONS.  ONE VERSION NEAR
      THE TOP OF THE HOUR CONTAINING PRELIMINARY DATA FROM ALBUQUERQUE
      AND OTHER STATIONS.  A FINAL VERSION WITH ADDITIONAL DATA IS
      ISSUED ABOUT 10 MINUTES AFTER THE HOUR.

NMZ501-503-504-510>518-010900-
NORTHWEST PLATEAU/NORTHCENTRAL MOUNTAINS

CITY           SKY/WX    TMP DP  RH WIND       PRES   REMARKS
FARMINGTON     CLEAR     31  30  96 W7        29.98F WCI  24
LOS ALAMOS     CLEAR     30  30 100 CALM      29.95F
SANTA FE       FOG       30  28  92 W7        29.94S VSB 1/4 WCI  23
TAOS           CLOUDY    30  27  86 NW7       29.96S WCI  23
ANGEL FIRE     FAIR      28  25  87 S5          N/A  WCI  23

$$
NMZ402-403-502-505>509-010900-
WESTCENTRAL MOUNTAINS/SOUTHWEST MOUNTAINS

CITY           SKY/WX    TMP DP  RH WIND       PRES   REMARKS
GALLUP         CLOUDY    32  30  92 CALM      30.03S
GRANTS         CLOUDY    34  31  90 N12       30.04R WCI  25
SILVER CITY    PTCLDY    37  37 100 NW9       30.00R WCI  31

$$
NMZ407-409-411-412-010900-
SOUTHERN DESERTS

CITY           SKY/WX    TMP DP  RH WIND       PRES   REMARKS
LORDSBURG      PTSUNNY   37  36  93 CALM      29.98S
DEMING         CLEAR     39  38  96 SW5       29.97S
LAS CRUCES     PTCLDY    42  40  94 W9        29.95S
HOLLOMAN AFB   CLOUDY    42  42 100 CALM      29.92S
ALAMOGORDO     CLOUDY    46  45  93 CALM      29.94S
T OR C         CLOUDY    43  42  97 NW3       29.94S

$$
NMZ519>523-010900-
CENTRAL VALLEYS/CENTRAL HIGHLANDS

CITY           SKY/WX    TMP DP  RH WIND       PRES   REMARKS
ALBUQUERQUE    CLOUDY    39  32  76 NW9       29.99R WCI  33
DOUBLE EAGLE   PTCLDY    32  30  92 NW10      29.99S WCI  24
MORIARTY ARPT  FAIR      31  28  88 N9        29.95S WCI  23
CLINES CORNERS CLOUDY    30  29  96 NW20      29.89F FOG     WCI  17
BELEN          CLOUDY    37  37 100 N5        29.99S WCI  33
SOCORRO        FAIR      39  37  93 N8        29.97R WCI  34

$$
NMZ524>526-539-540-010900-
SOUTHCENTRAL MOUNTAINS

CITY           SKY/WX    TMP DP  RH WIND       PRES   REMARKS
RUIDOSO        CLOUDY    39  34  81 NW10G18   29.94F WCI  32

$$
NMZ527>531-010900-
NORTHEAST HIGHLANDS/NORTHEAST PLAINS

CITY           SKY/WX    TMP DP  RH WIND       PRES   REMARKS
LAS VEGAS      CLEAR     30  23  75 NW5       29.88R WCI  25
RATON          PTCLDY    30  27  88 N7        29.86S WCI  23
CLAYTON        MOCLDY    35  32  88 N6        29.85S WCI  30

$$
NMZ532>537-010900-
EASTCENTRAL PLAINS

CITY           SKY/WX    TMP DP  RH WIND       PRES   REMARKS
TUCUMCARI      FOG       33  29  85 NW3       29.86S VSB 1
CANNON AFB     NOT AVBL
CLOVIS AIRPORT MOCLDY    36  34  93 NW5       29.85R WCI  32

$$
NMZ028-029-538-010900-
SOUTHEAST PLAINS

CITY           SKY/WX    TMP DP  RH WIND       PRES   REMARKS
ROSWELL        FOG       43  42  97 S5        29.89S VSB 1/4
ARTESIA        FOG       43  43 100 NW5       29.90F VSB 1/4
CARLSBAD       FOG       42  41  96 N5        29.88F VSB<1/4
HOBBS          FOG       41  41 100 SW9       29.89S VSB 1/4


$$



USA.gov is the U.S. government's official web portal to all federal, state and local government web resources and services.